Tracking 31027 objects as of 19-Jul-2025
HD Live streaming from Space Station
objects crossing your sky now

CZ-4 DEB

Track CZ-4 DEB now!
10-day predictions


NORAD ID: 20894
Int'l Code: 1990-081BE
Perigee: 774.7 km
Apogee: 799.7 km
Inclination: 98.5 °
Period: 100.5 minutes
Semi major axis: 7158 km
RCS: 0.0352 m2 (small)
Launch date: September 3, 1990
Source: People's Republic of China (PRC)
Launch site: Taiyaun Space Center, China (TSC)

Note: This is SATELLITE DEBRIS
Your satellite tracking list
Your tracking list is empty




NASA's NSSDC Master Catalog

Two Line Element Set (TLE):
1 20894U 90081BE  25198.51917262  .00001016  00000-0  38278-3 0  9998
2 20894  98.5367 196.3269 0017450 212.7236 272.3944 14.33508164802397
Source of the keplerian elements: AFSPC